Home > Weather > Schwedt/Oder > Past weeks

Flag for Germany Weather for the Past 2 Weeks in Schwedt/Oder, Brandenburg, Germany

Now
28 °F

Clear.


Feels Like: 22 °F
Forecast: 32 / 40 °F
Wind: 6 mph from Southeast

Location: Szczecin Airport

Current Time: Feb 13, 2016 at 6:30:56 AM

Latest Report: Feb 13, 2016 at 6:00 AM


Visibility: 4 mi

Pressure: 29.50 "Hg

Humidity: 100%

Dew point: 28 °F

Location of Schwedt/OderLocation

Historic Weather in Schwedt/Oder — Graph

°F

Schwedt/Oder Temperature Yesterday

Maximum temperature yesterday: 37 °F (at 12:00 AM)
Minimum temperature yesterday: 30 °F (at 10:30 PM)
Average temperature yesterday: 35 °F

High & Low Weather Summary for the Past Weeks

 TemperatureHumidityPressure
High52 °F (Feb 7, 1:00 PM)100% (Feb 1, 2:30 PM)30.18 "Hg (Feb 1, 2:30 PM)
Low27 °F (Feb 13, 1:00 AM)50% (Feb 9, 12:30 PM)28.94 "Hg (Feb 10, 12:00 AM)
Average41 °F82%29.65 "Hg
* Reported Jan 29 5:00 AM — Feb 13 5:00 AM, Schwedt/Oder, Weather by CustomWeather, © 2016

Note: Actual official high and low records may vary slightly from our data, if they occured in-between our weather recording intervals... More about our weather records

Advertising

Schwedt/Oder Weather History for the Previous 24 Hours

 ConditionsComfort  
Time TempWeatherWind HumidityBarometerVisibility
5:00 AM
Sat, Feb 13
28 °FClear.2 mph100%29.50 "Hg4 mi
4:30 AM28 °FClear.3 mph93%29.53 "Hg4 mi
4:00 AM27 °FClear.5 mph100%29.53 "Hg4 mi
3:30 AM27 °FClear.2 mph100%29.53 "Hg4 mi
3:00 AM27 °FIce fog.3 mph93%29.53 "Hg3 mi
2:30 AM27 °FIce fog.5 mph100%29.53 "Hg3 mi
2:00 AM27 °FIce fog.3 mph100%29.53 "Hg3 mi
1:30 AM27 °FIce fog.3 mph93%29.53 "Hg2 mi
1:00 AM27 °FClear.5 mph100%29.53 "Hg4 mi
12:00 AM30 °FIce fog.5 mph100%29.56 "Hg3 mi
11:00 PM
Fri, Feb 12
30 °FIce fog.5 mph100%29.56 "Hg2 mi
10:30 PM30 °FIce fog.6 mph93%29.56 "Hg2 mi
10:00 PM32 °FIce fog.5 mph93%29.56 "Hg2 mi
9:30 PM32 °FIce fog.5 mph93%29.56 "Hg2 mi
9:00 PM32 °FIce fog.5 mph100%29.56 "Hg2 mi
8:30 PM34 °FFog.5 mph93%29.56 "Hg2 mi
8:00 PM34 °FFog.3 mph93%29.56 "Hg1 mi
7:30 PM36 °FFog.3 mph93%29.56 "Hg2 mi
7:00 PM34 °FFog.3 mph100%29.56 "Hg2 mi
6:30 PM36 °FFog.1 mph100%29.56 "Hg2 mi
6:00 PM36 °FPartly cloudy.3 mph100%29.56 "Hg4 mi
5:30 PM37 °FPartly cloudy.3 mph93%29.56 "Hg4 mi
5:00 PM37 °FBroken clouds.3 mph93%29.56 "Hg5 mi
4:30 PM37 °FPartly sunny.3 mph93%29.56 "Hg5 mi
4:00 PM37 °FPartly sunny.3 mph93%29.56 "Hg4 mi
3:30 PM37 °FFog.5 mph93%29.56 "Hg3 mi
3:00 PM37 °FBroken clouds.5 mph93%29.56 "Hg4 mi
2:30 PM37 °FDrizzle. Fog.3 mph93%29.56 "Hg3 mi
2:00 PM37 °FDrizzle. Fog.5 mph93%29.56 "Hg3 mi
1:30 PM36 °FLight rain. Fog.7 mph93%29.56 "Hg3 mi
1:00 PM36 °FDrizzle. Fog.6 mph100%29.56 "Hg3 mi
12:30 PM36 °FDrizzle. Fog.6 mph93%29.56 "Hg2 mi
12:00 PM36 °FDrizzle. Fog.7 mph100%29.56 "Hg2 mi
11:30 AM36 °FDrizzle. Fog.8 mph100%29.56 "Hg2 mi
11:00 AM36 °FDrizzle. Fog.8 mph100%29.56 "Hg2 mi
10:30 AM36 °FLow clouds.8 mph93%29.56 "Hg4 mi
10:00 AM36 °FMore clouds than sun.8 mph93%29.56 "Hg4 mi
9:30 AM36 °FLight rain. More clouds than sun.6 mph93%29.56 "Hg4 mi
9:00 AM34 °FLight rain. Fog.6 mph100%29.56 "Hg2 mi
8:30 AM34 °FLight rain. Fog.5 mph100%29.56 "Hg2 mi
8:00 AM34 °FLight rain. Fog.6 mph100%29.56 "Hg2 mi
7:30 AM34 °FLight rain. Fog.6 mph100%29.56 "Hg1 mi
7:00 AM34 °FDrizzle. Fog.7 mph100%29.56 "Hg2 mi
6:30 AM34 °FDrizzle. Fog.6 mph100%29.56 "Hg3 mi
6:00 AM36 °FMostly cloudy.7 mph93%29.56 "Hg4 mi
Weather by CustomWeather, © 2016

See weather overviewHow to use our weather pages